Location: UMBC
(39.2555°N, 76.7093°W)
Time: 04:14:50
(UTC+02:00)

Amateur Radio Satellites - All Passes

Search period start: 31 August 2014 03:44
Search period end: 01 September 2014 03:44
Location: UMBC, 39.2555°N, 76.7093°W

Satellite Date Start Highest point End Downlink Frequencies (MHz)
Time Altitude Azimuth
FUNcube-1 31 Aug 04:01:33 04:05:07 28° 70° (ENE) 04:08:44 145.950 - 145.970 MHz USB
MaSat-1 31 Aug 04:10:12 04:13:20 18° 50° (NE) 04:16:12 437.345 MHz
Saudisat 1A 31 Aug 04:19:52 04:23:40 29° 113° (ESE) 04:27:29 436.775 MHz
AO-40 31 Aug 04:23:41 07:27:16 36° 194° (SSW) 12:42:59 Beacon 2401.320
KITSAT 1 31 Aug 04:55:10 05:02:09 34° 107° (ESE) 05:09:09 435.175 FM
UKube-1 31 Aug 05:08:14 05:09:52 12° 269° (W) 05:11:30 145.840 MHz, 145.915 MHz
HO-68 31 Aug 05:12:27 05:16:01 14° 270° (W) 05:19:37 435.675 MHz FM
Oscar 11 31 Aug 05:13:00 05:15:51 17° 267° (W) 05:18:43 145.825 FM, Beacon 2401.500 USB
FUNcube-1 31 Aug 05:38:13 05:41:30 22° 266° (W) 05:44:50 145.950 - 145.970 MHz USB
MaSat-1 31 Aug 05:46:25 05:50:42 45° 252° (WSW) 05:54:24 437.345 MHz
Saudisat 1A 31 Aug 05:59:20 06:03:11 29° 310° (NW) 06:07:04 436.775 MHz
KITSAT 1 31 Aug 06:49:17 06:57:10 55° 306° (NW) 07:05:06 435.175 FM
Sapphire 31 Aug 07:26:17 07:30:25 22° 48° (NE) 07:34:31 437.095 MHz 1200 baud AX-25 AFSK
PCSat 31 Aug 07:55:13 08:00:15 37° 54° (NE) 08:05:15 145.825 MHz
Oscar 19 31 Aug 08:03:29 08:08:06 32° 96° (E) 08:12:40 437.125 CW, 437.150 USB
AO-Echo 31 Aug 08:30:07 08:34:00 25° 95° (E) 08:37:52 ?
ITAMSAT 1 31 Aug 08:36:16 08:40:41 28° 96° (E) 08:45:04 435.822 SSB
Oscar 16 31 Aug 08:37:59 08:43:11 72° 102° (ESE) 08:48:21 437.025 USB, Beacon 2401.1428
Uribyol 2 31 Aug 08:45:55 08:50:43 37° 98° (E) 08:55:29 436.500 FM
TMSAT-1 31 Aug 08:48:36 08:50:02 11° 89° (E) 08:51:28 436.925 FM
KITSAT 1 31 Aug 08:50:05 08:54:38 16° 330° (NNW) 08:59:11 435.175 FM
JAS-1B 31 Aug 08:54:27 09:00:34 38° 95° (E) 09:05:57 435.800 - 435.900 CW/SSB
AO-27 31 Aug 09:04:53 09:09:58 54° 101° (E) 09:15:01 436.795 MHz FM
Sapphire 31 Aug 09:08:53 09:14:13 59° 246° (WSW) 09:19:31 437.095 MHz 1200 baud AX-25 AFSK
Gurwin Techsat 1B 31 Aug 09:33:57 09:39:03 45° 99° (E) 09:44:06 435.225 FM
PCSat 31 Aug 09:38:52 09:43:31 30° 251° (WSW) 09:48:09 145.825 MHz
Oscar 19 31 Aug 09:42:52 09:47:20 30° 292° (WNW) 09:51:47 437.125 CW, 437.150 USB
OPAL 31 Aug 09:47:56 09:52:09 27° 64° (ENE) 09:56:25 ?
AO-7 31 Aug 09:50:27 09:54:20 14° 89° (E) 09:58:12 29.400 - 29.500 MHz
AO-Echo 31 Aug 10:08:40 10:12:46 30° 291° (WNW) 10:16:52 ?
SO-50 31 Aug 10:09:42 10:14:09 88° 301° (WNW) 10:18:45 436.795 FM
ITAMSAT 1 31 Aug 10:15:32 10:20:10 34° 292° (WNW) 10:24:47 435.822 SSB
Oscar 16 31 Aug 10:19:12 10:21:54 14° 299° (WNW) 10:24:37 437.025 USB, Beacon 2401.1428
TMSAT-1 31 Aug 10:25:14 10:30:33 82° 285° (WNW) 10:35:50 436.925 FM
Uribyol 2 31 Aug 10:25:45 10:30:00 26° 294° (WNW) 10:34:15 436.500 FM
UOSAT-12 31 Aug 10:31:12 10:32:44 12° 107° (ESE) 10:34:16 437.025 FM, 437.400 FM
JAS-1B 31 Aug 10:45:18 10:51:03 31° 298° (WNW) 10:56:10 435.800 - 435.900 CW/SSB
AO-27 31 Aug 10:45:32 10:49:02 19° 297° (WNW) 10:52:33 436.795 MHz FM
Uosat F 31 Aug 10:58:52 11:03:32 38° 98° (E) 11:08:10 435.120 FM
Oscar 10/S400 31 Aug 11:03:18 12:11:32 24° 250° (WSW) 14:51:12 145.825 - 145.975 CW/USB, Beacon 145.810 USB
Gurwin Techsat 1B 31 Aug 11:14:40 11:18:41 22° 295° (WNW) 11:22:42 435.225 FM
OPAL 31 Aug 11:26:16 11:30:51 35° 261° (W) 11:35:32 ?
STRAND 1 31 Aug 11:35:02 11:36:43 12° 60° (ENE) 11:38:24 ?
AO-7 31 Aug 11:39:55 11:48:16 80° 107° (ESE) 11:56:32 29.400 - 29.500 MHz
SO-50 31 Aug 11:53:22 11:55:26 13° 321° (NW) 11:57:31 436.795 FM
Hamsat 31 Aug 11:55:51 11:57:56 13° 91° (E) 12:00:00 145.90 MHz
UOSAT-12 31 Aug 12:07:37 12:12:12 73° 303° (WNW) 12:16:55 437.025 FM, 437.400 FM
TMSAT-1 31 Aug 12:08:47 12:09:36 10° 302° (WNW) 12:10:24 436.925 FM
RS-15 31 Aug 12:27:26 12:35:24 23° 102° (ESE) 12:43:12 29.354 - 29.394 USB, Beacon 29.352 USB
JAS-2 31 Aug 12:33:52 12:38:42 35° 98° (E) 12:43:53 435.800 - 435.900 CW/SSB, 435.910 FM
Uosat F 31 Aug 12:38:09 12:42:05 24° 294° (WNW) 12:46:00 435.120 FM
Saudisat 1A 31 Aug 12:47:34 12:50:53 20° 46° (NE) 12:54:11 436.775 MHz
KITSAT 1 31 Aug 12:49:10 12:54:16 18° 33° (NNE) 12:59:21 435.175 FM
STRAND 1 31 Aug 13:10:03 13:15:09 86° 256° (WSW) 13:20:17 ?
Hamsat 31 Aug 13:29:57 13:34:10 50° 286° (WNW) 13:38:20 145.90 MHz
AO-7 31 Aug 13:34:04 13:40:09 24° 306° (NW) 13:46:13 29.400 - 29.500 MHz
UOSAT-12 31 Aug 13:51:30 13:53:12 12° 322° (NW) 13:54:55 437.025 FM, 437.400 FM
SO-67 31 Aug 14:06:34 14:10:00 60° 100° (E) 14:13:24 435.3500 MHz FM
JAS-2 31 Aug 14:19:21 14:23:43 27° 292° (WNW) 14:28:20 435.800 - 435.900 CW/SSB, 435.910 FM
Saudisat 1A 31 Aug 14:26:27 14:30:41 46° 244° (WSW) 14:34:53 436.775 MHz
RS-15 31 Aug 14:35:13 14:46:21 84° 301° (WNW) 14:57:21 29.354 - 29.394 USB, Beacon 29.352 USB
KITSAT 1 31 Aug 14:43:25 14:51:27 63° 56° (ENE) 14:59:24 435.175 FM
HO-68 31 Aug 14:50:57 14:55:29 18° 91° (E) 14:59:59 435.675 MHz FM
ISS 31 Aug 15:48:40 15:51:14 21° 132° (SE) 15:53:49 145.800 FM
HO-68 31 Aug 16:36:42 16:43:52 79° 288° (WNW) 16:51:01 435.675 MHz FM
KITSAT 1 31 Aug 16:39:44 16:46:14 28° 255° (WSW) 16:52:43 435.175 FM
RS-15 31 Aug 16:51:32 17:00:31 28° 328° (NNW) 17:09:32 29.354 - 29.394 USB, Beacon 29.352 USB
UKube-1 31 Aug 16:54:23 16:58:42 66° 286° (WNW) 17:03:00 145.840 MHz, 145.915 MHz
Oscar 11 31 Aug 16:59:52 17:04:15 87° 283° (WNW) 17:08:37 145.825 FM, Beacon 2401.500 USB
SO-50 31 Aug 17:04:26 17:05:27 11° 37° (NE) 17:06:27 436.795 FM
ISS 31 Aug 17:24:38 17:27:48 40° 328° (NNW) 17:30:58 145.800 FM
FUNcube-1 31 Aug 17:26:54 17:31:27 73° 102° (ESE) 17:36:03 145.950 - 145.970 MHz USB
Oscar 16 31 Aug 18:18:50 18:20:28 11° 59° (ENE) 18:22:05 437.025 USB, Beacon 2401.1428
PANSAT 31 Aug 18:21:52 18:23:52 14° 170° (S) 18:25:52 not established
HO-68 31 Aug 18:26:44 18:30:26 15° 306° (NW) 18:34:08 435.675 MHz FM
SO-50 31 Aug 18:42:11 18:46:57 62° 56° (NE) 18:51:45 436.795 FM
UOSAT-12 31 Aug 19:00:21 19:01:59 12° 38° (NE) 19:03:36 437.025 FM, 437.400 FM
ISS 31 Aug 19:03:45 19:05:15 12° 347° (NNW) 19:06:44 145.800 FM
FUNcube-1 31 Aug 19:05:47 19:07:14 11° 297° (WNW) 19:08:42 145.950 - 145.970 MHz USB
RS-15 31 Aug 19:11:40 19:18:17 17° 4° (N) 19:24:58 29.354 - 29.394 USB, Beacon 29.352 USB
Oscar 19 31 Aug 19:19:16 19:24:05 41° 70° (ENE) 19:28:56 437.125 CW, 437.150 USB
MaSat-1 31 Aug 19:31:56 19:36:48 87° 113° (ESE) 19:42:00 437.345 MHz
JAS-1B 31 Aug 19:34:51 19:43:39 41° 66° (ENE) 19:51:37 435.800 - 435.900 CW/SSB
AO-Echo 31 Aug 19:41:57 19:46:21 32° 69° (ENE) 19:50:39 ?
ITAMSAT 1 31 Aug 19:53:15 19:57:59 38° 69° (ENE) 20:02:45 435.822 SSB
Oscar 16 31 Aug 19:53:52 19:59:01 89° 256° (WSW) 20:04:14 437.025 USB, Beacon 2401.1428
PANSAT 31 Aug 20:00:55 20:03:23 16° 183° (S) 20:05:50 not established
Uribyol 2 31 Aug 20:02:47 20:07:44 50° 71° (ENE) 20:12:43 436.500 FM
TMSAT-1 31 Aug 20:07:28 20:10:53 18° 63° (ENE) 20:14:18 436.925 FM
AO-27 31 Aug 20:21:59 20:27:08 74° 74° (ENE) 20:32:19 436.795 MHz FM
SO-50 31 Aug 20:24:18 20:27:01 15° 252° (WSW) 20:29:45 436.795 FM
UOSAT-12 31 Aug 20:38:16 20:43:00 71° 57° (ENE) 20:47:38 437.025 FM, 437.400 FM
ISS 31 Aug 20:42:22 20:43:11 11° 8° (N) 20:44:00 145.800 FM
AO-7 31 Aug 20:48:05 20:53:57 22° 53° (NE) 20:59:47 29.400 - 29.500 MHz
Gurwin Techsat 1B 31 Aug 20:53:58 20:59:12 64° 73° (ENE) 21:04:27 435.225 FM
Oscar 19 31 Aug 20:59:34 21:03:33 22° 266° (W) 21:07:34 437.125 CW, 437.150 USB
MaSat-1 31 Aug 21:11:50 21:14:33 14° 312° (NW) 21:17:20 437.345 MHz
AO-Echo 31 Aug 21:20:50 21:25:05 27° 264° (W) 21:29:16 ?
JAS-1B 31 Aug 21:24:23 21:33:52 52° 261° (W) 21:42:32 435.800 - 435.900 CW/SSB
Oscar 10/S400 31 Aug 21:25:46 21:39:32 18° 147° (SSE) 21:51:26 145.825 - 145.975 CW/USB, Beacon 145.810 USB
RS-15 31 Aug 21:25:49 21:35:33 34° 38° (NE) 21:45:31 29.354 - 29.394 USB, Beacon 29.352 USB
ITAMSAT 1 31 Aug 21:33:25 21:37:34 24° 265° (W) 21:41:44 435.822 SSB
PANSAT 31 Aug 21:42:14 21:42:51 10° 196° (SSW) 21:43:28 not established
Uribyol 2 31 Aug 21:43:58 21:47:28 18° 267° (W) 21:50:59 436.500 FM
TMSAT-1 31 Aug 21:45:06 21:50:18 59° 259° (W) 21:55:32 436.925 FM
AO-27 31 Aug 22:05:10 22:07:10 12° 270° (W) 22:09:10 436.795 MHz FM
Sapphire 31 Aug 22:07:51 22:11:47 21° 106° (ESE) 22:15:44 437.095 MHz 1200 baud AX-25 AFSK
Uosat F 31 Aug 22:11:04 22:15:52 48° 71° (ENE) 22:20:40 435.120 FM
ISS 31 Aug 22:17:58 22:20:50 26° 27° (NNE) 22:23:41 145.800 FM
UOSAT-12 31 Aug 22:20:40 22:22:31 12° 253° (WSW) 22:24:21 437.025 FM, 437.400 FM
PCSat 31 Aug 22:35:54 22:40:55 41° 111° (ESE) 22:45:59 145.825 MHz
Gurwin Techsat 1B 31 Aug 22:36:42 22:39:35 15° 269° (W) 22:42:30 435.225 FM
AO-7 31 Aug 22:37:21 22:45:43 86° 252° (WSW) 22:54:06 29.400 - 29.500 MHz
JAS-2 31 Aug 22:47:58 22:50:55 14° 62° (ENE) 22:53:43 435.800 - 435.900 CW/SSB, 435.910 FM
OPAL 31 Aug 23:36:32 23:41:45 66° 104° (ESE) 23:46:54 ?
RS-15 31 Aug 23:37:58 23:49:05 80° 242° (WSW) 00:00:40 29.354 - 29.394 USB, Beacon 29.352 USB
Sapphire 31 Aug 23:49:33 23:54:47 51° 303° (WNW) 00:00:05 437.095 MHz 1200 baud AX-25 AFSK
Uosat F 31 Aug 23:51:29 23:54:53 18° 267° (W) 23:58:18 435.120 FM
ISS 31 Aug 23:54:30 23:57:38 39° 224° (SW) 00:00:46 145.800 FM
PCSat 01 Sep 00:19:48 00:24:27 28° 309° (NW) 00:29:07 145.825 MHz
Hamsat 01 Sep 00:21:44 00:26:02 83° 258° (WSW) 00:30:25 145.90 MHz
JAS-2 01 Sep 00:29:15 00:35:29 79° 257° (WSW) 00:41:03 435.800 - 435.900 CW/SSB, 435.910 FM
AO-7 01 Sep 00:34:53 00:39:31 16° 270° (W) 00:44:10 29.400 - 29.500 MHz
SO-67 01 Sep 00:39:32 00:41:52 17° 69° (ENE) 00:44:12 435.3500 MHz FM
OPAL 01 Sep 01:16:55 01:20:03 16° 300° (WNW) 01:23:10 ?
HO-68 01 Sep 01:21:05 01:24:10 13° 52° (NE) 01:27:14 435.675 MHz FM
STRAND 1 01 Sep 01:22:02 01:26:41 35° 98° (E) 01:31:18 ?
RS-15 01 Sep 01:53:19 01:59:40 17° 261° (W) 02:06:11 29.354 - 29.394 USB, Beacon 29.352 USB
SO-67 01 Sep 02:11:52 02:14:43 24° 264° (W) 02:17:36 435.3500 MHz FM
STRAND 1 01 Sep 03:01:29 03:05:42 27° 293° (WNW) 03:09:55 ?
HO-68 01 Sep 03:03:32 03:10:37 71° 71° (ENE) 03:17:43 435.675 MHz FM
